Location: Carr Mill
(33.2054°N, 85.9439°W)
Time: 00:17:11
(UTC+00:00)

OAO 3 Rocket - Pass Details

Date: 29 October 2020
Orbit: 629 x 682 km, 35.0° (Epoch: 28 November)

Event Time Altitude Azimuth Distance (km) Brightness Sun altitude
Rises 23:21:26 0° 283° (WNW) 2,993 7.9 -6.3°
Reaches altitude 10° 23:23:51 10° 280° (W) 2,071 7.1 -6.8°
Maximum altitude 23:28:37 61° 200° (SSW) 735 3.6 -7.8°
Drops below altitude 10° 23:33:17 10° 120° (ESE) 2,031 5.3 -8.7°
Enters shadow 23:34:31 - 118° (ESE) 2,495 5.7 -9.0°
